Location: site
(53.0000°N, 23.0500°E)
Time: 17:14:26
(UTC+01:00)

SAOCOM 1-A - Pass Details

Date: 19 January 2020
Orbit: 621 x 623 km, 97.9° (Epoch: 25 February)

Event Time Altitude Azimuth Distance (km) Brightness Sun altitude
Exits shadow 19:27:45 14° 336° (NNW) 1,726 ? -32.4°
Maximum altitude 19:29:46 19° 302° (WNW) 1,481 ? -32.7°
Drops below altitude 10° 19:32:52 10° 257° (WSW) 1,996 ? -33.2°
Sets 19:35:32 0° 240° (WSW) 2,898 ? -33.6°
